Location: Cuiry
(49.3858°N, 3.7708°E)
Time: 00:17:28
(UTC+00:00)

Cosmos 304 Rocket - Pass Details

Date: 12 January 2026
Orbit: 669 x 676 km, 74.0° (Epoch: 18 February)

Event Time Altitude Azimuth Distance (km) Brightness Sun altitude
Rises 17:09:35 0° 335° (NNW) 3,040 7.1 -9.4°
Reaches altitude 10° 17:11:54 10° 335° (NNW) 2,120 6.4 -9.8°
Maximum altitude 17:16:40 80° 249° (WSW) 690 3.9 -10.5°
Drops below altitude 10° 17:21:23 10° 163° (SSE) 2,100 6.3 -11.2°
Sets 17:23:40 0° 162° (SSE) 3,008 7.1 -11.6°
